Meteo Giornale » Osservazioni meteo Gran Bretagna » Wick
ore: 16:20 - Osservazioni Meteo Wick
Lat. 58° 27' N Lon. 3° 5' W Alt. 39 metri s.l.m.
13 °C
Molto Nuvoloso
Temp. 24 Ore
13 °C
15 °C
Ovest/Nord-Ovest
31.5 Km/h
Dew point 12 °C
Umidità 93 %
Visibilità 10 Km
Il sole sorge alle ore 06:09
Il sole tramonta alle ore 20:15
| Data e Ora | Cielo e Fenomeni | T °C | DP °C | Um. % | Pres. hPa | Vis. km | Vento km/h | |
|---|---|---|---|---|---|---|---|---|
| Oggi h: 16:20 | Molto Nuvoloso | 13 | 12 | 93 | 1008 | 10 | O/NO 31.5 | |
| Oggi h: 15:50 | Molto Nuvoloso | 14 | 13 | 93 | 1008 | 10 | O/NO 27.8 | |
| Oggi h: 15:20 | Pioviggine | 13 | 12 | 93 | 1007 | 10 | O/NO 22.2 | |
| Oggi h: 14:50 | Pioggia | 14 | 14 | 100 | 1007 | 3 | N 3.7 | |
| Oggi h: 14:20 | Pioggia | 14 | 13 | 93 | 1007 | 4 | N 3.7 | |
| Oggi h: 13:50 | Pioggia | 15 | 14 | 93 | 1006 | 3 | N 5.5 | |
| Oggi h: 13:20 | Nuvoloso | 15 | 14 | 93 | 1006 | 10 | S/SE 11.1 | |
| Oggi h: 12:50 | Nuvoloso | 15 | 14 | 93 | 1006 | 10 | SE 9.3 | |
| Oggi h: 12:20 | Molto Nuvoloso | 15 | 14 | 93 | 1005 | 10 | SE 11.1 | |
| Oggi h: 11:50 | Molto Nuvoloso | 15 | 14 | 93 | 1005 | 10 | S/SE 7.4 | |
| Oggi h: 11:20 | Pioggia nelle vicinanze | 14 | 14 | 100 | 1005 | 5 | SE 9.3 | |
| Oggi h: 10:50 | Pioviggine | 14 | 13 | 93 | 1005 | 4 | SE 9.3 | |
| Oggi h: 10:20 | Pioggia | 14 | 13 | 93 | 1005 | 9 | N 3.7 | |
| Oggi h: 09:50 | Pioviggine | 14 | 13 | 93 | 1005 | 6 | N 5.5 | |
| Oggi h: 09:20 | Pioviggine | 14 | 13 | 93 | 1004 | 2 | N 3.7 | |
| Oggi h: 08:50 | Pioviggine | 13 | 13 | 100 | 1004 | 3 | SE 9.3 | |
| Oggi h: 08:20 | Molto Nuvoloso | 13 | 13 | 100 | 1004 | 10 | E/SE 7.4 | |
| Oggi h: 07:50 | Molto Nuvoloso | 13 | 13 | 100 | 1004 | 10 | E/SE 9.3 | |
| Oggi h: 07:20 | Molto Nuvoloso | 13 | 13 | 100 | 1004 | 10 | E/SE 11.1 | |
| Oggi h: 06:50 | Molto Nuvoloso | 13 | 12 | 93 | 1004 | 10 | E/SE 13 | |
| Oggi h: 06:20 | Coperto | 13 | 12 | 93 | 1004 | 10 | E 11.1 | |
| Oggi h: 05:50 | Coperto | 13 | 13 | 100 | 1003 | 10 | E/SE 14.8 | |
| Oggi h: 05:20 | Coperto | 13 | 13 | 100 | 1003 | 10 | E 13 | |
| Oggi h: 04:50 | Coperto | 13 | 13 | 100 | 1003 | 7 | E 13 | |
| Oggi h: 04:20 | Foschia | 13 | 13 | 100 | 1003 | 5 | E 13 | |
| Oggi h: 03:50 | Pioviggine | 13 | 12 | 93 | 1003 | 3 | E 11.1 | |
| Oggi h: 03:20 | Coperto | 13 | 12 | 93 | 1004 | 10 | E/SE 16.7 | |
| Oggi h: 02:50 | Coperto | 13 | 13 | 100 | 1004 | 10 | E 18.5 | |
| Oggi h: 02:20 | Coperto | 13 | 13 | 100 | 1004 | 10 | E 16.7 | |
| Oggi h: 01:50 | Coperto | 13 | 13 | 100 | 1004 | 10 | E 14.8 | |
| Oggi h: 01:20 | Coperto | 13 | 13 | 100 | 1004 | 8 | E 11.1 | |
| Oggi h: 00:50 | Coperto | 13 | 13 | 100 | 1004 | 10 | E 13 | |
| Oggi h: 00:20 | Pioviggine | 13 | 13 | 100 | 1004 | 4 | E 13 | |
| Ieri h: 23:50 | Coperto | 13 | 13 | 100 | 1004 | 10 | E 13 | |
| Ieri h: 23:20 | Coperto | 13 | 13 | 100 | 1004 | 10 | E 14.8 | |
| Ieri h: 22:50 | Coperto | 13 | 13 | 100 | 1004 | 10 | E 14.8 | |
| Ieri h: 22:20 | Coperto | 13 | 13 | 100 | 1004 | 10 | E 14.8 | |
| Ieri h: 21:50 | Coperto | 13 | 13 | 100 | 1005 | 10 | E 14.8 | |
| Ieri h: 21:20 | Coperto | 13 | 13 | 100 | 1005 | 10 | E 14.8 | |
| Ieri h: 20:50 | Coperto | 13 | 13 | 100 | 1005 | 10 | E 14.8 | |
| Ieri h: 20:20 | Coperto | 13 | 12 | 93 | 1005 | 10 | E 16.7 | |
| Ieri h: 19:50 | Coperto | 13 | 12 | 93 | 1005 | 10 | E 16.7 | |
| Ieri h: 19:20 | Coperto | 13 | 12 | 93 | 1005 | 10 | E 16.7 | |
| Ieri h: 18:50 | Coperto | 13 | 12 | 93 | 1005 | 10 | E 14.8 | |
| Ieri h: 18:20 | Coperto | 13 | 12 | 93 | 1005 | 10 | E 14.8 | |
| Ieri h: 17:50 | Molto Nuvoloso | 14 | 12 | 87 | 1005 | 10 | E 16.7 | |
| Ieri h: 17:20 | Molto Nuvoloso | 14 | 12 | 87 | 1005 | 10 | E 18.5 | |
| Ieri h: 16:50 | Molto Nuvoloso | 13 | 12 | 93 | 1005 | 10 | E 18.5 | |



